Time,TemperatureF,DewpointF,PressureIn,WindDirection,WindDirectionDegrees,WindSpeedMPH,WindSpeedGustMPH,Humidity,HourlyPrecipIn,Conditions,Clouds,dailyrainin,SolarRadiationWatts/m^2,SoftwareType,DateUTC
2013-03-16 00:00:00,39.5,32.2,29.77,South,175,10.1,20.0,75,0.00,OVC,,0.10,0.0,WeatherDisplay:10.37,2013-03-15 23:00:00,
2013-03-16 00:05:00,39.4,32.1,29.77,SSW,203,7.2,11.5,75,0.00,RA,,0.00,0.0,WeatherDisplay:10.37,2013-03-15 23:05:00,
2013-03-16 00:10:00,39.3,32.3,29.77,South,184,11.2,18.4,76,0.00,RA,,0.00,0.0,WeatherDisplay:10.37,2013-03-15 23:10:00,
2013-03-16 00:15:00,39.2,32.2,29.77,SSW,195,8.3,11.5,76,0.00,RA,,0.00,0.0,WeatherDisplay:10.37,2013-03-15 23:15:00,
2013-03-16 00:20:00,39.1,32.5,29.77,SSW,199,11.2,20.7,77,0.00,RA,,0.00,0.0,WeatherDisplay:10.37,2013-03-15 23:20:00,
2013-03-16 00:25:00,39.0,32.7,29.77,South,186,13.2,16.1,78,0.00,RA,,0.00,0.0,WeatherDisplay:10.37,2013-03-15 23:25:00,
2013-03-16 00:30:00,38.7,32.7,29.77,SSW,204,8.0,16.1,79,0.00,OVC,,0.00,0.0,WeatherDisplay:10.37,2013-03-15 23:30:00,
2013-03-16 00:35:00,38.5,33.2,29.77,South,185,11.2,18.4,81,0.00,OVC,,0.00,0.0,WeatherDisplay:10.37,2013-03-15 23:35:00,
2013-03-16 00:40:00,38.4,33.1,29.77,South,183,13.4,18.4,81,0.00,OVC,,0.00,0.0,WeatherDisplay:10.37,2013-03-15 23:40:00,
2013-03-16 00:45:00,38.2,33.2,29.77,SSE,160,8.1,15.0,82,0.00,OVC,,0.00,0.0,WeatherDisplay:10.37,2013-03-15 23:45:00,
2013-03-16 00:50:00,38.1,33.4,29.77,SSW,200,8.0,15.0,83,0.00,OVC,,0.00,0.0,WeatherDisplay:10.37,2013-03-15 23:50:00,
2013-03-16 00:55:00,37.9,33.2,29.77,South,186,10.6,13.8,83,0.00,OVC,,0.00,0.0,WeatherDisplay:10.37,2013-03-15 23:55:00,
2013-03-16 01:00:00,37.9,33.5,29.76,SSW,210,10.8,18.4,84,0.00,OVC,,0.00,0.0,WeatherDisplay:10.37,2013-03-16 00:00:00,
2013-03-16 01:05:00,37.7,33.3,29.76,SSW,193,6.1,12.7,84,0.00,OVC,,0.00,0.0,WeatherDisplay:10.37,2013-03-16 00:05:00,
2013-03-16 01:10:00,37.7,33.6,29.76,South,190,12.1,13.0,85,0.01,RA,,0.01,0.0,WeatherDisplay:10.37,2013-03-16 00:10:00,
2013-03-16 01:15:00,37.6,33.5,29.76,SW,216,13.6,19.6,85,0.01,-RA,,0.01,0.0,WeatherDisplay:10.37,2013-03-16 00:15:00,
2013-03-16 01:20:00,37.6,33.5,29.76,SSW,206,12.2,15.0,85,0.01,-RA,,0.01,0.0,WeatherDisplay:10.37,2013-03-16 00:20:00,
2013-03-16 01:25:00,37.6,33.5,29.76,SSW,202,8.7,11.5,85,0.02,-RA,,0.02,0.0,WeatherDisplay:10.37,2013-03-16 00:25:00,
2013-03-16 01:30:00,37.6,33.5,29.75,SSW,199,14.3,17.3,85,0.02,-RA,,0.02,0.0,WeatherDisplay:10.37,2013-03-16 00:30:00,
2013-03-16 01:35:00,37.6,33.5,29.75,SSW,192,12.2,18.4,85,0.02,-RA,,0.02,0.0,WeatherDisplay:10.37,2013-03-16 00:35:00,
2013-03-16 01:40:00,37.7,33.6,29.75,South,188,11.9,18.4,85,0.02,-RA,,0.02,0.0,WeatherDisplay:10.37,2013-03-16 00:40:00,
2013-03-16 01:45:00,37.9,33.8,29.75,South,186,11.4,18.4,85,0.02,-RA,,0.02,0.0,WeatherDisplay:10.37,2013-03-16 00:45:00,
2013-03-16 01:50:00,38.0,33.9,29.75,South,175,13.7,27.6,85,0.02,-RA,,0.02,0.0,WeatherDisplay:10.37,2013-03-16 00:50:00,
2013-03-16 01:55:00,38.1,33.7,29.75,SSE,153,0.0,15.0,84,0.02,CLR,,0.02,0.0,WeatherDisplay:10.37,2013-03-16 00:55:00,
2013-03-16 02:00:00,38.0,33.6,29.75,South,184,14.9,20.0,84,0.02,-RA,,0.02,0.0,WeatherDisplay:10.37,2013-03-16 01:00:00,
2013-03-16 02:05:00,38.1,33.7,29.74,South,182,12.8,19.6,84,0.02,-RA,,0.02,0.0,WeatherDisplay:10.37,2013-03-16 01:05:00,
2013-03-16 02:10:00,38.2,33.8,29.74,SSW,194,13.9,13.9,84,0.02,-RA,,0.02,0.0,WeatherDisplay:10.37,2013-03-16 01:10:00,
2013-03-16 02:15:00,38.2,33.8,29.74,South,184,11.4,17.3,84,0.02,-RA,,0.02,0.0,WeatherDisplay:10.37,2013-03-16 01:15:00,
2013-03-16 02:20:00,38.2,33.8,29.74,South,174,10.4,16.1,84,0.02,-RA,,0.02,0.0,WeatherDisplay:10.37,2013-03-16 01:20:00,
2013-03-16 02:25:00,38.3,33.9,29.74,SSW,196,10.7,16.1,84,0.01,-RA,,0.02,0.0,WeatherDisplay:10.37,2013-03-16 01:25:00,
2013-03-16 02:30:00,38.3,33.9,29.73,South,190,16.8,17.3,84,0.01,-RA,,0.03,0.0,WeatherDisplay:10.37,2013-03-16 01:30:00,
2013-03-16 02:35:00,38.4,33.7,29.73,South,183,15.6,24.2,83,0.02,-RA,,0.03,0.0,WeatherDisplay:10.37,2013-03-16 01:35:00,
2013-03-16 02:40:00,38.5,34.1,29.73,South,186,9.1,18.4,84,0.02,-RA,,0.03,0.0,WeatherDisplay:10.37,2013-03-16 01:40:00,
2013-03-16 02:45:00,38.5,34.1,29.73,South,169,11.3,15.0,84,0.02,RA,,0.03,0.0,WeatherDisplay:10.37,2013-03-16 01:45:00,
2013-03-16 02:50:00,38.5,34.1,29.73,South,188,12.0,16.1,84,0.02,RA,,0.03,0.0,WeatherDisplay:10.37,2013-03-16 01:50:00,
2013-03-16 02:55:00,38.5,34.1,29.72,SSW,196,15.6,23.0,84,0.02,RA,,0.03,0.0,WeatherDisplay:10.37,2013-03-16 01:55:00,
2013-03-16 03:00:00,38.6,33.9,29.73,South,170,13.3,16.1,83,0.02,OVC,,0.03,0.0,WeatherDisplay:10.37,2013-03-16 02:00:00,
2013-03-16 03:05:00,38.6,33.9,29.72,SSW,194,12.3,16.1,83,0.02,OVC,,0.03,0.0,WeatherDisplay:10.37,2013-03-16 02:05:00,
2013-03-16 03:10:00,38.5,33.8,29.72,SSW,198,12.4,18.4,83,0.01,OVC,,0.03,0.0,WeatherDisplay:10.37,2013-03-16 02:10:00,
2013-03-16 03:15:00,38.6,33.9,29.72,South,179,19.2,21.9,83,0.01,-RA,,0.03,0.0,WeatherDisplay:10.37,2013-03-16 02:15:00,
2013-03-16 03:20:00,38.8,34.1,29.72,South,183,14.3,17.3,83,0.01,-RA,,0.03,0.0,WeatherDisplay:10.37,2013-03-16 02:20:00,
2013-03-16 03:29:00,38.8,34.1,29.71,South,179,18.3,27.6,83,0.01,-RA,,0.03,0.0,WeatherDisplay:10.37,2013-03-16 02:29:00,
2013-03-16 03:34:00,38.9,33.9,29.71,South,189,13.8,19.6,82,0.01,-RA,,0.03,0.0,WeatherDisplay:10.37,2013-03-16 02:34:00,
2013-03-16 03:39:00,38.9,33.9,29.71,South,171,12.9,18.4,82,0.00,-DZ,,0.03,0.0,WeatherDisplay:10.37,2013-03-16 02:39:00,
2013-03-16 03:44:00,38.9,33.5,29.71,South,176,13.7,20.7,81,0.00,-DZ,,0.03,0.0,WeatherDisplay:10.37,2013-03-16 02:44:00,
2013-03-16 03:49:00,39.0,33.6,29.71,SSW,203,12.8,18.4,81,0.00,-DZ,,0.03,0.0,WeatherDisplay:10.37,2013-03-16 02:49:00,
2013-03-16 03:54:00,39.0,33.6,29.71,SSW,198,11.8,19.6,81,0.00,-DZ,,0.03,0.0,WeatherDisplay:10.37,2013-03-16 02:54:00,
2013-03-16 03:59:00,39.0,33.3,29.71,South,190,15.2,19.6,80,0.00,-DZ,,0.03,0.0,WeatherDisplay:10.37,2013-03-16 02:59:00,
2013-03-16 04:04:00,39.0,33.3,29.71,SSE,159,14.5,21.9,80,0.00,-DZ,,0.03,0.0,WeatherDisplay:10.37,2013-03-16 03:04:00,
2013-03-16 04:09:00,39.1,33.1,29.70,South,179,14.2,26.5,79,0.00,SCT,,0.03,0.0,WeatherDisplay:10.37,2013-03-16 03:09:00,
2013-03-16 04:14:00,39.1,33.4,29.70,SSW,192,8.4,18.4,80,0.00,SCT,,0.03,0.0,WeatherDisplay:10.37,2013-03-16 03:14:00,
2013-03-16 04:19:00,39.1,33.4,29.70,SSW,195,16.5,19.6,80,0.00,SCT,,0.03,0.0,WeatherDisplay:10.37,2013-03-16 03:19:00,
2013-03-16 04:24:00,39.1,33.4,29.70,South,174,14.7,21.0,80,0.00,SCT,,0.03,0.0,WeatherDisplay:10.37,2013-03-16 03:24:00,
2013-03-16 04:29:00,39.1,33.4,29.70,South,191,13.4,23.0,80,0.00,SCT,,0.03,0.0,WeatherDisplay:10.37,2013-03-16 03:29:00,
2013-03-16 04:34:00,39.1,33.1,29.70,South,185,16.1,19.0,79,0.00,SCT,,0.03,0.0,WeatherDisplay:10.37,2013-03-16 03:34:00,
2013-03-16 04:39:00,39.2,33.2,29.70,South,169,13.1,16.1,79,0.00,SCT,,0.03,0.0,WeatherDisplay:10.37,2013-03-16 03:39:00,
2013-03-16 04:44:00,39.1,33.1,29.70,South,190,14.2,23.0,79,0.00,SCT,,0.03,0.0,WeatherDisplay:10.37,2013-03-16 03:44:00,
2013-03-16 04:49:00,39.2,33.2,29.70,South,186,15.5,24.0,79,0.00,SCT,,0.03,0.0,WeatherDisplay:10.37,2013-03-16 03:49:00,
2013-03-16 04:54:00,39.2,33.2,29.70,South,182,12.5,20.7,79,0.00,SCT,,0.03,0.0,WeatherDisplay:10.37,2013-03-16 03:54:00,
2013-03-16 04:59:00,39.1,33.1,29.70,South,182,11.3,19.6,79,0.00,SCT,,0.03,0.0,WeatherDisplay:10.37,2013-03-16 03:59:00,
2013-03-16 05:00:00,39.1,33.1,29.70,South,189,11.4,20.0,79,0.00,SCT,,0.03,0.0,WeatherDisplay:10.37,2013-03-16 04:00:00,
2013-03-16 05:01:00,39.1,33.1,29.70,South,186,13.0,23.0,79,0.00,SCT,,0.03,0.0,WeatherDisplay:10.37,2013-03-16 04:01:00,
2013-03-16 05:06:00,39.1,33.1,29.70,South,174,11.6,21.9,79,0.00,SCT,,0.03,0.0,WeatherDisplay:10.37,2013-03-16 04:06:00,
2013-03-16 05:19:00,39.1,33.1,29.69,South,180,10.9,19.0,79,0.00,SCT,,0.03,0.0,WeatherDisplay:10.37,2013-03-16 04:19:00,
2013-03-16 05:24:00,39.1,33.1,29.69,South,184,11.8,20.7,79,0.00,SCT,,0.03,0.0,WeatherDisplay:10.37,2013-03-16 04:24:00,
2013-03-16 05:29:00,39.1,33.1,29.69,South,191,9.9,19.6,79,0.00,FEW,,0.03,0.0,WeatherDisplay:10.37,2013-03-16 04:29:00,
2013-03-16 05:34:00,39.0,33.0,29.69,South,185,13.3,19.6,79,0.00,FEW,,0.03,0.0,WeatherDisplay:10.37,2013-03-16 04:34:00,
2013-03-16 05:39:00,39.0,33.0,29.69,South,186,12.1,22.0,79,0.00,FEW,,0.03,0.0,WeatherDisplay:10.37,2013-03-16 04:39:00,
2013-03-16 05:44:00,39.1,33.1,29.69,SSW,201,13.9,26.5,79,0.00,FEW,,0.03,0.0,WeatherDisplay:10.37,2013-03-16 04:44:00,
2013-03-16 05:49:00,39.2,33.2,29.69,South,183,15.5,21.9,79,0.00,FEW,,0.03,0.0,WeatherDisplay:10.37,2013-03-16 04:49:00,
2013-03-16 05:54:00,39.2,33.2,29.69,SSW,194,12.6,21.9,79,0.00,FEW,,0.03,0.0,WeatherDisplay:10.37,2013-03-16 04:54:00,
2013-03-16 05:59:00,39.1,33.1,29.69,SSW,196,17.9,27.6,79,0.00,FEW,,0.03,0.0,WeatherDisplay:10.37,2013-03-16 04:59:00,
2013-03-16 06:04:00,39.1,33.1,29.69,SSW,202,11.9,23.0,79,0.00,FEW,,0.03,0.0,WeatherDisplay:10.37,2013-03-16 05:04:00,
2013-03-16 06:09:00,39.0,33.0,29.69,South,184,18.4,28.8,79,0.00,FEW,,0.03,0.0,WeatherDisplay:10.37,2013-03-16 05:09:00,
2013-03-16 06:14:00,39.1,33.1,29.69,South,183,16.1,26.5,79,0.00,FEW,,0.03,0.0,WeatherDisplay:10.37,2013-03-16 05:14:00,
2013-03-16 06:19:00,39.1,33.1,29.69,SSW,201,13.2,19.6,79,0.00,FEW,,0.03,0.0,WeatherDisplay:10.37,2013-03-16 05:19:00,
2013-03-16 06:24:00,39.2,33.2,29.69,South,184,15.2,21.9,79,0.00,FEW,,0.03,0.0,WeatherDisplay:10.37,2013-03-16 05:24:00,
2013-03-16 06:29:00,39.1,33.1,29.68,SSW,196,19.5,27.6,79,0.00,FEW,,0.03,0.0,WeatherDisplay:10.37,2013-03-16 05:29:00,
2013-03-16 06:34:00,39.1,33.1,29.68,SSW,198,15.7,20.7,79,0.00,FEW,,0.03,0.0,WeatherDisplay:10.37,2013-03-16 05:34:00,
2013-03-16 06:39:00,39.1,33.1,29.68,South,176,16.5,20.7,79,0.00,FEW,,0.03,0.0,WeatherDisplay:10.37,2013-03-16 05:39:00,
2013-03-16 06:44:00,39.1,33.1,29.69,South,179,15.9,25.3,79,0.00,CLR,,0.03,0.0,WeatherDisplay:10.37,2013-03-16 05:44:00,
2013-03-16 06:50:00,39.1,33.1,29.69,South,186,10.8,21.0,79,0.00,CLR,,0.03,0.0,WeatherDisplay:10.37,2013-03-16 05:50:00,
2013-03-16 06:55:00,39.1,33.1,29.69,South,184,13.1,31.1,79,0.00,CLR,,0.03,0.0,WeatherDisplay:10.37,2013-03-16 05:55:00,
2013-03-16 07:00:00,39.2,33.2,29.69,SW,227,15.9,28.8,79,0.00,CLR,,0.03,0.0,WeatherDisplay:10.37,2013-03-16 06:00:00,
2013-03-16 07:05:00,39.3,33.3,29.69,South,184,20.1,29.9,79,0.00,CLR,,0.03,5.0,WeatherDisplay:10.37,2013-03-16 06:05:00,
2013-03-16 07:10:00,39.3,33.3,29.69,South,191,14.4,23.0,79,0.00,CLR,,0.03,7.0,WeatherDisplay:10.37,2013-03-16 06:10:00,
2013-03-16 07:15:00,39.4,33.4,29.68,SSW,200,12.7,19.6,79,0.00,CLR,,0.03,11.0,WeatherDisplay:10.37,2013-03-16 06:15:00,
2013-03-16 07:20:00,39.4,33.4,29.68,South,188,13.8,23.0,79,0.00,CLR,,0.03,16.0,WeatherDisplay:10.37,2013-03-16 06:20:00,
2013-03-16 07:25:00,39.5,33.5,29.68,South,174,15.2,28.8,79,0.00,CLR,,0.03,19.0,WeatherDisplay:10.37,2013-03-16 06:25:00,
2013-03-16 07:30:00,39.6,33.6,29.68,SSE,159,18.1,26.5,79,0.00,CLR,,0.03,23.0,WeatherDisplay:10.37,2013-03-16 06:30:00,
2013-03-16 07:35:00,39.7,33.7,29.68,South,178,17.3,26.5,79,0.00,CLR,,0.03,26.0,WeatherDisplay:10.37,2013-03-16 06:35:00,
2013-03-16 07:40:00,39.8,33.8,29.68,South,183,17.9,28.8,79,0.00,CLR,,0.03,28.0,WeatherDisplay:10.37,2013-03-16 06:40:00,
2013-03-16 07:45:00,39.9,33.9,29.68,SSW,195,16.8,25.3,79,0.00,CLR,,0.03,28.0,WeatherDisplay:10.37,2013-03-16 06:45:00,
2013-03-16 07:50:00,40.1,34.1,29.68,SW,222,14.4,24.2,79,0.00,CLR,,0.03,40.0,WeatherDisplay:10.37,2013-03-16 06:50:00,
2013-03-16 07:55:00,40.2,34.2,29.68,SSW,198,18.8,26.5,79,0.00,CLR,,0.03,40.0,WeatherDisplay:10.37,2013-03-16 06:55:00,
2013-03-16 08:00:00,40.3,34.3,29.68,South,178,14.1,23.0,79,0.00,OVC,,0.03,40.0,WeatherDisplay:10.37,2013-03-16 07:00:00,
2013-03-16 08:05:00,40.3,34.3,29.68,South,191,15.0,22.0,79,0.00,OVC,,0.03,40.0,WeatherDisplay:10.37,2013-03-16 07:05:00,
2013-03-16 08:10:00,40.3,34.3,29.68,SSW,192,16.4,25.3,79,0.00,OVC,,0.03,42.0,WeatherDisplay:10.37,2013-03-16 07:10:00,
2013-03-16 08:15:00,40.4,34.7,29.68,SSW,207,14.2,24.2,80,0.00,BKN,,0.03,47.0,WeatherDisplay:10.37,2013-03-16 07:15:00,
2013-03-16 08:20:00,40.4,34.7,29.68,South,187,13.2,20.7,80,0.00,BKN,,0.03,53.0,WeatherDisplay:10.37,2013-03-16 07:20:00,
2013-03-16 08:22:00,40.4,34.7,29.68,South,188,14.0,18.0,80,0.00,BKN,,0.03,54.0,WeatherDisplay:10.37,2013-03-16 07:22:00,
2013-03-16 08:25:00,40.4,34.7,29.68,South,188,14.0,18.0,80,0.00,BKN,,0.03,54.0,WeatherDisplay:10.37,2013-03-16 07:25:00,
2013-03-16 08:30:00,40.4,34.7,29.68,South,188,14.0,18.0,80,0.00,BKN,,0.03,54.0,WeatherDisplay:10.37,2013-03-16 07:30:00,
2013-03-16 08:39:00,40.4,34.7,29.68,South,188,14.0,18.0,80,0.00,BKN,,0.03,54.0,WeatherDisplay:10.37,2013-03-16 07:39:00,
2013-03-16 09:15:00,40.4,34.7,29.68,South,188,14.0,18.0,80,0.00,BKN,,0.03,54.0,WeatherDisplay:10.37,2013-03-16 08:15:00,
2013-03-16 09:20:00,40.4,34.7,29.68,South,188,14.0,18.0,80,0.00,BKN,,0.03,54.0,WeatherDisplay:10.37,2013-03-16 08:20:00,
2013-03-16 09:25:00,40.4,34.7,29.68,South,188,14.0,18.0,80,0.00,BKN,,0.03,54.0,WeatherDisplay:10.37,2013-03-16 08:25:00,
2013-03-16 09:40:00,40.4,34.7,29.68,South,188,14.0,18.0,80,0.00,BKN,,0.03,54.0,WeatherDisplay:10.37,2013-03-16 08:40:00,
2013-03-16 09:48:00,40.7,35.6,29.68,South,180,14.9,21.9,82,0.00,BKN,,0.03,67.0,WeatherDisplay:10.37,2013-03-16 08:48:00,
2013-03-16 09:53:00,40.5,35.4,29.68,South,186,11.8,24.2,82,0.00,BKN,,0.03,97.0,WeatherDisplay:10.37,2013-03-16 08:53:00,
2013-03-16 09:58:00,40.3,37.0,29.68,South,177,10.4,26.5,88,0.00,BKN,,0.03,107.0,WeatherDisplay:10.37,2013-03-16 08:58:00,
2013-03-16 10:03:00,40.2,35.4,29.67,SSE,162,9.4,18.4,83,0.00,BKN,,0.03,125.0,WeatherDisplay:10.37,2013-03-16 09:03:00,
2013-03-16 10:08:00,40.3,35.5,29.68,South,178,14.6,19.6,83,0.00,BKN,,0.03,127.0,WeatherDisplay:10.37,2013-03-16 09:08:00,
2013-03-16 10:13:00,40.3,37.0,29.67,SSE,168,8.1,17.3,88,0.00,OVC,,0.03,149.0,WeatherDisplay:10.37,2013-03-16 09:13:00,
2013-03-16 10:18:00,40.4,35.6,29.68,SSE,163,6.1,16.1,83,0.00,OVC,,0.03,165.0,WeatherDisplay:10.37,2013-03-16 09:18:00,
2013-03-16 10:23:00,40.6,35.8,29.68,SSE,159,5.7,10.4,83,0.00,OVC,,0.03,163.0,WeatherDisplay:10.37,2013-03-16 09:23:00,
2013-03-16 10:28:00,40.7,35.6,29.68,SSE,158,12.6,20.7,82,0.00,OVC,,0.03,178.0,WeatherDisplay:10.37,2013-03-16 09:28:00,
2013-03-16 10:33:00,40.9,35.8,29.68,SSE,167,8.2,15.0,82,0.00,FEW,,0.03,169.0,WeatherDisplay:10.37,2013-03-16 09:33:00,
2013-03-16 10:38:00,41.0,35.6,29.68,South,184,9.5,17.3,81,0.00,FEW,,0.03,192.0,WeatherDisplay:10.37,2013-03-16 09:38:00,
2013-03-16 10:43:00,41.2,35.8,29.67,South,189,12.1,19.6,81,0.00,FEW,,0.03,216.0,WeatherDisplay:10.37,2013-03-16 09:43:00,
2013-03-16 10:48:00,41.6,35.9,29.67,SSE,166,14.6,24.2,80,0.00,FEW,,0.03,221.0,WeatherDisplay:10.37,2013-03-16 09:48:00,
2013-03-16 10:53:00,42.0,35.9,29.67,South,190,17.4,25.3,79,0.00,FEW,,0.03,223.0,WeatherDisplay:10.37,2013-03-16 09:53:00,
2013-03-16 10:58:00,42.3,35.9,29.67,South,171,22.5,27.6,78,0.00,FEW,,0.03,221.0,WeatherDisplay:10.37,2013-03-16 09:58:00,
2013-03-16 11:03:00,42.5,35.8,29.67,South,181,18.8,25.3,77,0.00,FEW,,0.03,221.0,WeatherDisplay:10.37,2013-03-16 10:03:00,
2013-03-16 11:08:00,42.6,35.9,29.67,South,178,19.3,27.6,77,0.00,FEW,,0.03,225.0,WeatherDisplay:10.37,2013-03-16 10:08:00,
2013-03-16 11:13:00,42.6,35.9,29.67,South,186,12.6,20.7,77,0.00,FEW,,0.03,223.0,WeatherDisplay:10.37,2013-03-16 10:13:00,
2013-03-16 11:18:00,42.7,36.0,29.67,South,191,19.3,26.5,77,0.00,FEW,,0.03,232.0,WeatherDisplay:10.37,2013-03-16 10:18:00,
2013-03-16 11:23:00,42.8,35.7,29.67,South,190,16.6,25.3,76,0.00,BKN,,0.03,243.0,WeatherDisplay:10.37,2013-03-16 10:23:00,
2013-03-16 11:28:00,42.9,35.8,29.67,South,178,16.7,24.2,76,0.00,BKN,,0.03,237.0,WeatherDisplay:10.37,2013-03-16 10:28:00,
2013-03-16 11:33:00,43.0,35.9,29.67,South,179,18.7,24.2,76,0.00,BKN,,0.03,262.0,WeatherDisplay:10.37,2013-03-16 10:33:00,
2013-03-16 11:38:00,43.1,36.0,29.67,South,172,12.9,23.0,76,0.00,BKN,,0.03,306.0,WeatherDisplay:10.37,2013-03-16 10:38:00,
2013-03-16 11:43:00,43.3,35.9,29.67,South,182,17.8,25.0,75,0.00,BKN,,0.03,311.0,WeatherDisplay:10.37,2013-03-16 10:43:00,
2013-03-16 11:48:00,43.3,35.9,29.66,SSW,192,17.5,24.2,75,0.00,BKN,,0.03,265.0,WeatherDisplay:10.37,2013-03-16 10:48:00,
2013-03-16 11:53:00,43.4,35.6,29.66,SE,132,17.1,26.5,74,0.00,BKN,,0.03,239.0,WeatherDisplay:10.37,2013-03-16 10:53:00,
2013-03-16 11:58:00,43.5,35.7,29.66,South,191,16.0,20.7,74,0.00,BKN,,0.03,232.0,WeatherDisplay:10.37,2013-03-16 10:58:00,
2013-03-16 12:03:00,43.5,35.7,29.66,SSW,192,13.5,18.4,74,0.00,BKN,,0.03,250.0,WeatherDisplay:10.37,2013-03-16 11:03:00,
2013-03-16 12:08:00,43.6,35.8,29.66,South,180,16.9,21.9,74,0.00,BKN,,0.04,272.0,WeatherDisplay:10.37,2013-03-16 11:08:00,
2013-03-16 12:13:00,43.8,36.0,29.66,South,180,16.6,20.7,74,0.01,RA,,0.04,262.0,WeatherDisplay:10.37,2013-03-16 11:13:00,
2013-03-16 12:18:00,43.9,35.8,29.66,South,184,19.7,31.1,73,0.01,RA,,0.04,265.0,WeatherDisplay:10.37,2013-03-16 11:18:00,
2013-03-16 12:23:00,43.9,35.4,29.66,South,187,13.7,21.9,72,0.01,RA,,0.04,264.0,WeatherDisplay:10.37,2013-03-16 11:23:00,
2013-03-16 12:28:00,44.0,35.5,29.66,South,177,15.2,23.0,72,0.01,RA,,0.04,241.0,WeatherDisplay:10.37,2013-03-16 11:28:00,
2013-03-16 12:33:00,44.2,35.7,29.66,South,184,18.3,23.0,72,0.01,RA,,0.04,251.0,WeatherDisplay:10.37,2013-03-16 11:33:00,
2013-03-16 12:38:00,44.3,35.5,29.66,South,169,18.9,25.3,71,0.01,BKN,,0.04,281.0,WeatherDisplay:10.37,2013-03-16 11:38:00,
2013-03-16 12:43:00,44.5,35.3,29.65,South,185,20.7,26.5,70,0.01,BKN,,0.04,301.0,WeatherDisplay:10.37,2013-03-16 11:43:00,
2013-03-16 12:48:00,44.7,35.5,29.65,SSW,193,17.0,24.2,70,0.01,BKN,,0.04,264.0,WeatherDisplay:10.37,2013-03-16 11:48:00,
2013-03-16 12:53:00,44.7,35.1,29.65,South,178,17.3,25.3,69,0.01,BKN,,0.04,265.0,WeatherDisplay:10.37,2013-03-16 11:53:00,
2013-03-16 12:58:00,44.8,34.9,29.65,South,180,22.2,26.5,68,0.01,BKN,,0.04,276.0,WeatherDisplay:10.37,2013-03-16 11:58:00,
2013-03-16 13:03:00,44.8,34.5,29.65,South,181,17.2,24.2,67,0.01,BKN,,0.04,311.0,WeatherDisplay:10.37,2013-03-16 12:03:00,
2013-03-16 13:08:00,44.9,34.6,29.64,South,170,18.0,27.6,67,0.01,BKN,,0.04,343.0,WeatherDisplay:10.37,2013-03-16 12:08:00,
2013-03-16 13:13:00,45.1,35.1,29.64,South,188,17.6,26.5,68,0.00,BKN,,0.04,350.0,WeatherDisplay:10.37,2013-03-16 12:13:00,
2013-03-16 13:18:00,45.3,35.0,29.64,SSW,193,20.5,28.8,67,0.00,BKN,,0.04,313.0,WeatherDisplay:10.37,2013-03-16 12:18:00,
2013-03-16 13:23:00,45.3,35.0,29.64,South,169,14.5,23.0,67,0.00,BKN,,0.04,271.0,WeatherDisplay:10.37,2013-03-16 12:23:00,
2013-03-16 13:28:00,45.3,34.6,29.64,SSE,152,11.2,26.5,66,0.00,BKN,,0.04,239.0,WeatherDisplay:10.37,2013-03-16 12:28:00,
2013-03-16 13:33:00,45.2,34.1,29.64,South,182,18.4,29.0,65,0.00,BKN,,0.04,251.0,WeatherDisplay:10.37,2013-03-16 12:33:00,
2013-03-16 13:38:00,45.2,34.5,29.63,SSW,192,17.1,24.2,66,0.00,BKN,,0.04,251.0,WeatherDisplay:10.37,2013-03-16 12:38:00,
2013-03-16 13:43:00,45.2,34.5,29.63,SSE,163,14.2,21.9,66,0.00,BKN,,0.04,232.0,WeatherDisplay:10.37,2013-03-16 12:43:00,
2013-03-16 13:48:00,45.1,34.0,29.63,South,182,15.3,23.0,65,0.00,BKN,,0.04,237.0,WeatherDisplay:10.37,2013-03-16 12:48:00,
2013-03-16 13:53:00,45.1,34.4,29.63,South,190,14.4,27.6,66,0.00,BKN,,0.04,244.0,WeatherDisplay:10.37,2013-03-16 12:53:00,
2013-03-16 13:58:00,45.1,34.4,29.62,SSW,196,13.3,19.6,66,0.00,BKN,,0.04,283.0,WeatherDisplay:10.37,2013-03-16 12:58:00,
2013-03-16 14:03:00,45.1,34.4,29.62,SSE,168,10.2,18.4,66,0.00,BKN,,0.04,308.0,WeatherDisplay:10.37,2013-03-16 13:03:00,
2013-03-16 14:08:00,45.2,34.5,29.62,South,176,7.7,21.9,66,0.00,BKN,,0.04,325.0,WeatherDisplay:10.37,2013-03-16 13:08:00,
2013-03-16 14:13:00,45.2,34.5,29.62,SSW,212,8.9,17.0,66,0.00,BKN,,0.04,334.0,WeatherDisplay:10.37,2013-03-16 13:13:00,
2013-03-16 14:18:00,45.1,34.0,29.62,SSE,151,9.6,17.3,65,0.00,BKN,,0.04,306.0,WeatherDisplay:10.37,2013-03-16 13:18:00,
2013-03-16 14:23:00,45.0,34.3,29.61,ESE,123,14.6,26.5,66,0.00,BKN,,0.04,264.0,WeatherDisplay:10.37,2013-03-16 13:23:00,
2013-03-16 14:28:00,44.9,34.2,29.61,SSE,152,9.0,17.3,66,0.00,BKN,,0.04,241.0,WeatherDisplay:10.37,2013-03-16 13:28:00,
2013-03-16 14:33:00,44.8,33.7,29.61,South,173,9.4,20.7,65,0.00,BKN,,0.04,241.0,WeatherDisplay:10.37,2013-03-16 13:33:00,
2013-03-16 14:38:00,44.7,33.6,29.61,South,172,12.6,17.3,65,0.00,BKN,,0.04,269.0,WeatherDisplay:10.37,2013-03-16 13:38:00,
2013-03-16 14:43:00,44.8,34.1,29.61,South,190,10.8,23.0,66,0.00,BKN,,0.04,274.0,WeatherDisplay:10.37,2013-03-16 13:43:00,
2013-03-16 14:48:00,44.8,33.7,29.61,ESE,123,13.9,19.6,65,0.00,BKN,,0.04,257.0,WeatherDisplay:10.37,2013-03-16 13:48:00,
2013-03-16 14:53:00,44.9,34.2,29.60,SSE,149,7.6,12.7,66,0.00,BKN,,0.04,246.0,WeatherDisplay:10.37,2013-03-16 13:53:00,
2013-03-16 14:58:00,44.8,33.7,29.60,South,186,8.2,16.1,65,0.00,BKN,,0.04,236.0,WeatherDisplay:10.37,2013-03-16 13:58:00,
2013-03-16 15:03:00,44.6,33.5,29.60,SE,146,9.6,15.0,65,0.00,BKN,,0.04,236.0,WeatherDisplay:10.37,2013-03-16 14:03:00,
2013-03-16 15:08:00,44.4,33.0,29.60,SSE,159,11.2,17.3,64,0.00,BKN,,0.04,227.0,WeatherDisplay:10.37,2013-03-16 14:08:00,
2013-03-16 15:13:00,44.3,32.9,29.60,SSE,153,6.6,19.6,64,0.00,BKN,,0.04,221.0,WeatherDisplay:10.37,2013-03-16 14:13:00,
2013-03-16 15:18:00,44.4,33.0,29.60,SSE,165,6.4,11.5,64,0.00,BKN,,0.04,221.0,WeatherDisplay:10.37,2013-03-16 14:18:00,
2013-03-16 15:23:00,44.4,33.0,29.60,SSE,165,9.9,12.7,64,0.00,BKN,,0.04,214.0,WeatherDisplay:10.37,2013-03-16 14:23:00,
2013-03-16 15:28:00,44.3,32.5,29.60,SSE,162,12.0,19.6,63,0.00,BKN,,0.04,200.0,WeatherDisplay:10.37,2013-03-16 14:28:00,
2013-03-16 15:33:00,44.3,32.5,29.59,SW,225,13.5,19.6,63,0.00,BKN,,0.04,183.0,WeatherDisplay:10.37,2013-03-16 14:33:00,
2013-03-16 15:38:00,44.3,32.5,29.59,SSE,148,7.4,9.2,63,0.00,BKN,,0.04,158.0,WeatherDisplay:10.37,2013-03-16 14:38:00,
2013-03-16 15:43:00,44.3,32.5,29.59,SSE,156,15.0,19.6,63,0.00,BKN,,0.04,155.0,WeatherDisplay:10.37,2013-03-16 14:43:00,
2013-03-16 15:48:00,44.2,31.6,29.58,SSE,159,8.9,19.6,61,0.00,BKN,,0.04,165.0,WeatherDisplay:10.37,2013-03-16 14:48:00,
2013-03-16 15:53:00,44.2,32.0,29.58,South,171,5.2,10.4,62,0.00,BKN,,0.04,172.0,WeatherDisplay:10.37,2013-03-16 14:53:00,
2013-03-16 15:58:00,44.2,32.0,29.58,SE,145,6.7,12.7,62,0.00,BKN,,0.04,169.0,WeatherDisplay:10.37,2013-03-16 14:58:00,
2013-03-16 16:03:00,44.1,31.5,29.58,SSE,151,10.5,13.8,61,0.00,BKN,,0.04,158.0,WeatherDisplay:10.37,2013-03-16 15:03:00,
2013-03-16 16:08:00,44.1,31.1,29.58,South,182,8.3,19.6,60,0.00,BKN,,0.04,160.0,WeatherDisplay:10.37,2013-03-16 15:08:00,
2013-03-16 16:13:00,44.1,31.5,29.58,South,181,10.2,13.8,61,0.00,BKN,,0.04,162.0,WeatherDisplay:10.37,2013-03-16 15:13:00,
2013-03-16 16:18:00,44.1,30.2,29.58,SSE,167,8.7,16.1,58,0.00,BKN,,0.04,148.0,WeatherDisplay:10.37,2013-03-16 15:18:00,
2013-03-16 16:23:00,44.1,30.7,29.57,South,189,10.9,19.6,59,0.00,BKN,,0.04,137.0,WeatherDisplay:10.37,2013-03-16 15:23:00,
2013-03-16 16:28:00,44.1,30.7,29.57,SSW,195,8.6,19.0,59,0.00,BKN,,0.04,128.0,WeatherDisplay:10.37,2013-03-16 15:28:00,
2013-03-16 16:34:00,44.1,30.7,29.57,SSE,165,10.2,19.6,59,0.00,BKN,,0.04,118.0,WeatherDisplay:10.37,2013-03-16 15:34:00,
2013-03-16 16:39:00,44.0,30.6,29.57,SE,135,7.5,13.8,59,0.00,BKN,,0.04,111.0,WeatherDisplay:10.37,2013-03-16 15:39:00,
2013-03-16 16:44:00,44.1,30.7,29.57,South,188,7.1,12.7,59,0.00,OVC,,0.04,107.0,WeatherDisplay:10.37,2013-03-16 15:44:00,
2013-03-16 16:49:00,44.1,30.2,29.57,SSE,154,11.2,19.6,58,0.00,OVC,,0.04,100.0,WeatherDisplay:10.37,2013-03-16 15:49:00,
2013-03-16 16:54:00,44.1,30.7,29.57,SSE,161,7.1,9.2,59,0.00,OVC,,0.04,88.0,WeatherDisplay:10.37,2013-03-16 15:54:00,
2013-03-16 16:59:00,44.1,30.2,29.57,SSE,154,11.9,19.6,58,0.00,OVC,,0.04,84.0,WeatherDisplay:10.37,2013-03-16 15:59:00,
2013-03-16 17:04:00,44.0,30.6,29.57,SE,142,8.8,16.1,59,0.00,OVC,,0.04,79.0,WeatherDisplay:10.37,2013-03-16 16:04:00,
2013-03-16 17:09:00,44.0,31.0,29.57,SSE,162,8.0,12.7,60,0.00,OVC,,0.04,79.0,WeatherDisplay:10.37,2013-03-16 16:09:00,
2013-03-16 17:14:00,43.9,30.5,29.56,SE,137,9.2,16.1,59,0.00,OVC,,0.04,72.0,WeatherDisplay:10.37,2013-03-16 16:14:00,
2013-03-16 17:19:00,43.9,30.9,29.56,SE,146,8.2,13.8,60,0.00,OVC,,0.04,67.0,WeatherDisplay:10.37,2013-03-16 16:19:00,
2013-03-16 17:24:00,43.9,30.9,29.56,SSE,151,2.0,2.3,60,0.00,OVC,,0.04,62.0,WeatherDisplay:10.37,2013-03-16 16:24:00,
2013-03-16 17:29:00,43.9,30.9,29.56,ESE,119,8.3,19.6,60,0.00,OVC,,0.04,53.0,WeatherDisplay:10.37,2013-03-16 16:29:00,
2013-03-16 17:34:00,43.9,30.9,29.56,SSE,163,6.4,11.0,60,0.00,OVC,,0.04,46.0,WeatherDisplay:10.37,2013-03-16 16:34:00,
2013-03-16 17:39:00,43.9,30.9,29.56,SE,139,9.2,12.7,60,0.00,OVC,,0.04,44.0,WeatherDisplay:10.37,2013-03-16 16:39:00,
2013-03-16 17:44:00,43.8,30.4,29.56,South,169,5.9,11.5,59,0.00,OVC,,0.04,40.0,WeatherDisplay:10.37,2013-03-16 16:44:00,
2013-03-16 17:49:00,43.8,30.0,29.56,SSE,158,13.5,18.4,58,0.00,OVC,,0.04,37.0,WeatherDisplay:10.37,2013-03-16 16:49:00,
2013-03-16 17:54:00,43.8,30.0,29.56,SSE,158,9.2,13.8,58,0.00,CLR,,0.04,33.0,WeatherDisplay:10.37,2013-03-16 16:54:00,
2013-03-16 17:59:00,43.7,29.4,29.56,SE,144,11.6,20.7,57,0.00,CLR,,0.04,32.0,WeatherDisplay:10.37,2013-03-16 16:59:00,
2013-03-16 18:04:00,43.8,29.5,29.56,SSE,158,8.5,12.7,57,0.00,CLR,,0.04,40.0,WeatherDisplay:10.37,2013-03-16 17:04:00,
2013-03-16 18:09:00,43.8,29.1,29.55,SSE,157,10.5,19.6,56,0.00,CLR,,0.04,28.0,WeatherDisplay:10.37,2013-03-16 17:09:00,
2013-03-16 18:14:00,43.8,29.5,29.55,SE,139,10.5,24.2,57,0.00,CLR,,0.04,23.0,WeatherDisplay:10.37,2013-03-16 17:14:00,
2013-03-16 18:19:00,43.7,28.6,29.55,SSE,157,6.5,10.4,55,0.00,CLR,,0.04,18.0,WeatherDisplay:10.37,2013-03-16 17:19:00,
2013-03-16 18:24:00,43.6,29.3,29.55,SSE,164,8.9,13.8,57,0.00,CLR,,0.04,18.0,WeatherDisplay:10.37,2013-03-16 17:24:00,
2013-03-16 18:29:00,43.5,28.8,29.55,South,178,8.0,11.5,56,0.00,CLR,,0.04,18.0,WeatherDisplay:10.37,2013-03-16 17:29:00,
2013-03-16 18:34:00,43.5,28.8,29.55,SSE,161,7.9,11.5,56,0.00,CLR,,0.04,12.0,WeatherDisplay:10.37,2013-03-16 17:34:00,
2013-03-16 18:39:00,43.4,28.7,29.55,SE,145,10.5,16.1,56,0.00,CLR,,0.04,7.0,WeatherDisplay:10.37,2013-03-16 17:39:00,
2013-03-16 18:44:00,43.3,29.1,29.55,SSE,148,10.8,17.3,57,0.00,CLR,,0.04,5.0,WeatherDisplay:10.37,2013-03-16 17:44:00,
2013-03-16 18:49:00,43.1,28.4,29.55,SE,146,10.6,19.6,56,0.00,CLR,,0.04,0.0,WeatherDisplay:10.37,2013-03-16 17:49:00,
2013-03-16 18:54:00,43.0,28.8,29.55,SSE,147,9.5,15.0,57,0.00,CLR,,0.04,0.0,WeatherDisplay:10.37,2013-03-16 17:54:00,
2013-03-16 18:59:00,43.0,28.3,29.55,SE,146,8.8,12.7,56,0.00,CLR,,0.04,0.0,WeatherDisplay:10.37,2013-03-16 17:59:00,
2013-03-16 19:04:00,42.9,28.7,29.55,SSE,154,9.6,13.8,57,0.00,CLR,,0.04,0.0,WeatherDisplay:10.37,2013-03-16 18:04:00,
2013-03-16 19:09:00,42.7,28.5,29.55,SSE,155,11.5,18.4,57,0.00,CLR,,0.04,0.0,WeatherDisplay:10.37,2013-03-16 18:09:00,
2013-03-16 19:14:00,42.8,28.2,29.54,SE,146,12.3,17.3,56,0.00,CLR,,0.04,0.0,WeatherDisplay:10.37,2013-03-16 18:14:00,
2013-03-16 19:19:00,42.7,28.1,29.55,SSE,147,11.1,13.8,56,0.00,CLR,,0.04,0.0,WeatherDisplay:10.37,2013-03-16 18:19:00,
2013-03-16 19:24:00,42.7,28.1,29.55,SSE,155,6.2,12.0,56,0.00,CLR,,0.04,0.0,WeatherDisplay:10.37,2013-03-16 18:24:00,
2013-03-16 19:29:00,42.6,28.0,29.55,SE,139,9.8,17.3,56,0.00,CLR,,0.04,0.0,WeatherDisplay:10.37,2013-03-16 18:29:00,
2013-03-16 19:34:00,42.6,27.5,29.55,SSE,147,8.1,17.3,55,0.00,CLR,,0.04,0.0,WeatherDisplay:10.37,2013-03-16 18:34:00,
2013-03-16 19:39:00,42.5,27.4,29.55,SE,135,9.5,17.3,55,0.00,CLR,,0.04,0.0,WeatherDisplay:10.37,2013-03-16 18:39:00,
2013-03-16 19:44:00,42.5,27.4,29.54,SE,144,15.1,23.0,55,0.00,CLR,,0.04,0.0,WeatherDisplay:10.37,2013-03-16 18:44:00,
2013-03-16 19:49:00,42.5,27.4,29.54,SSE,159,11.4,19.6,55,0.00,CLR,,0.04,0.0,WeatherDisplay:10.37,2013-03-16 18:49:00,
2013-03-16 19:54:00,42.4,27.3,29.54,SSE,154,10.1,15.0,55,0.00,CLR,,0.04,0.0,WeatherDisplay:10.37,2013-03-16 18:54:00,
2013-03-16 19:59:00,42.2,27.2,29.54,SSE,147,11.6,17.3,55,0.00,CLR,,0.04,0.0,WeatherDisplay:10.37,2013-03-16 18:59:00,
2013-03-16 20:04:00,42.2,27.2,29.54,SE,144,8.9,12.7,55,0.00,CLR,,0.04,0.0,WeatherDisplay:10.37,2013-03-16 19:04:00,
2013-03-16 20:09:00,42.0,27.0,29.54,SSE,168,11.9,16.1,55,0.00,CLR,,0.04,0.0,WeatherDisplay:10.37,2013-03-16 19:09:00,
2013-03-16 20:14:00,41.9,26.9,29.54,SE,133,12.2,18.4,55,0.00,CLR,,0.04,0.0,WeatherDisplay:10.37,2013-03-16 19:14:00,
2013-03-16 20:19:00,41.7,27.1,29.54,SSE,153,10.4,15.0,56,0.00,CLR,,0.04,0.0,WeatherDisplay:10.37,2013-03-16 19:19:00,
2013-03-16 20:24:00,41.6,27.0,29.53,SSE,149,12.3,18.4,56,0.00,CLR,,0.04,0.0,WeatherDisplay:10.37,2013-03-16 19:24:00,
2013-03-16 20:29:00,41.5,26.9,29.53,South,188,9.6,15.0,56,0.00,CLR,,0.04,0.0,WeatherDisplay:10.37,2013-03-16 19:29:00,
2013-03-16 20:34:00,41.4,26.8,29.53,SSE,153,10.1,13.8,56,0.00,CLR,,0.04,0.0,WeatherDisplay:10.37,2013-03-16 19:34:00,
2013-03-16 20:39:00,41.3,27.2,29.53,SSE,164,9.7,17.3,57,0.00,CLR,,0.04,0.0,WeatherDisplay:10.37,2013-03-16 19:39:00,
2013-03-16 20:44:00,41.4,27.3,29.53,SSE,155,8.1,11.5,57,0.00,CLR,,0.04,0.0,WeatherDisplay:10.37,2013-03-16 19:44:00,
2013-03-16 20:49:00,41.3,27.2,29.53,SE,144,10.9,12.0,57,0.00,CLR,,0.04,0.0,WeatherDisplay:10.37,2013-03-16 19:49:00,
2013-03-16 20:54:00,41.3,27.2,29.53,SSE,148,6.2,9.2,57,0.00,CLR,,0.04,0.0,WeatherDisplay:10.37,2013-03-16 19:54:00,
2013-03-16 20:59:00,41.4,26.8,29.52,SSE,163,10.5,15.0,56,0.00,CLR,,0.04,0.0,WeatherDisplay:10.37,2013-03-16 19:59:00,
2013-03-16 21:04:00,41.4,26.4,29.52,SSE,168,10.8,15.0,55,0.00,CLR,,0.04,0.0,WeatherDisplay:10.37,2013-03-16 20:04:00,
2013-03-16 21:09:00,41.4,26.4,29.52,South,171,11.1,19.6,55,0.00,CLR,,0.04,0.0,WeatherDisplay:10.37,2013-03-16 20:09:00,
2013-03-16 21:14:00,41.5,26.5,29.52,SSE,147,13.7,19.6,55,0.00,CLR,,0.04,0.0,WeatherDisplay:10.37,2013-03-16 20:14:00,
2013-03-16 21:19:00,41.6,26.6,29.52,SE,142,10.6,17.3,55,0.00,CLR,,0.04,0.0,WeatherDisplay:10.37,2013-03-16 20:19:00,
2013-03-16 21:24:00,41.6,26.6,29.52,SE,143,12.8,18.4,55,0.00,CLR,,0.04,0.0,WeatherDisplay:10.37,2013-03-16 20:24:00,
2013-03-16 21:29:00,41.6,26.6,29.52,SSE,155,11.6,15.0,55,0.00,CLR,,0.04,0.0,WeatherDisplay:10.37,2013-03-16 20:29:00,
2013-03-16 21:39:00,41.6,26.6,29.52,SSE,167,10.9,13.8,55,0.00,CLR,,0.04,0.0,WeatherDisplay:10.37,2013-03-16 20:39:00,
2013-03-16 21:44:00,41.3,26.3,29.52,SSE,163,9.7,13.8,55,0.00,CLR,,0.04,0.0,WeatherDisplay:10.37,2013-03-16 20:44:00,
2013-03-16 21:49:00,41.3,26.3,29.52,SSE,147,10.8,14.0,55,0.00,CLR,,0.04,0.0,WeatherDisplay:10.37,2013-03-16 20:49:00,
2013-03-16 21:59:00,40.8,26.7,29.52,SSE,168,4.2,5.0,57,0.00,CLR,,0.04,0.0,WeatherDisplay:10.37,2013-03-16 20:59:00,
2013-03-16 22:04:00,40.7,27.0,29.52,SSE,163,7.3,12.7,58,0.00,CLR,,0.04,0.0,WeatherDisplay:10.37,2013-03-16 21:04:00,
2013-03-16 22:09:00,40.8,27.5,29.52,SSE,163,4.6,16.1,59,0.00,CLR,,0.04,0.0,WeatherDisplay:10.37,2013-03-16 21:09:00,
2013-03-16 22:14:00,40.9,27.6,29.52,South,180,3.6,9.2,59,0.00,CLR,,0.04,0.0,WeatherDisplay:10.37,2013-03-16 21:14:00,
2013-03-16 22:19:00,40.8,28.0,29.52,South,187,6.2,11.5,60,0.00,CLR,,0.04,0.0,WeatherDisplay:10.37,2013-03-16 21:19:00,
2013-03-16 22:24:00,40.8,28.4,29.51,South,176,7.6,10.4,61,0.00,CLR,,0.04,0.0,WeatherDisplay:10.37,2013-03-16 21:24:00,
2013-03-16 22:29:00,40.7,28.3,29.51,South,187,4.1,8.1,61,0.00,CLR,,0.04,0.0,WeatherDisplay:10.37,2013-03-16 21:29:00,
2013-03-16 22:34:00,40.7,28.3,29.51,SSE,166,4.1,10.4,61,0.00,CLR,,0.04,0.0,WeatherDisplay:10.37,2013-03-16 21:34:00,
2013-03-16 22:39:00,40.7,27.9,29.51,SSE,149,8.2,15.0,60,0.00,CLR,,0.04,0.0,WeatherDisplay:10.37,2013-03-16 21:39:00,
2013-03-16 22:44:00,40.7,27.9,29.51,SSE,164,4.4,6.0,60,0.00,CLR,,0.04,0.0,WeatherDisplay:10.37,2013-03-16 21:44:00,
2013-03-16 22:49:00,40.8,28.0,29.51,SSE,163,7.5,11.5,60,0.00,CLR,,0.04,0.0,WeatherDisplay:10.37,2013-03-16 21:49:00,
2013-03-16 22:54:00,40.9,28.1,29.51,SSE,159,8.0,9.2,60,0.00,CLR,,0.04,0.0,WeatherDisplay:10.37,2013-03-16 21:54:00,
2013-03-16 22:59:00,41.1,28.2,29.51,SSE,164,6.8,10.0,60,0.00,CLR,,0.04,0.0,WeatherDisplay:10.37,2013-03-16 21:59:00,
2013-03-16 23:04:00,41.1,28.2,29.51,SSE,156,8.7,16.1,60,0.00,CLR,,0.04,0.0,WeatherDisplay:10.37,2013-03-16 22:04:00,
2013-03-16 23:09:00,41.3,28.8,29.52,South,179,13.0,18.4,61,0.00,CLR,,0.04,0.0,WeatherDisplay:10.37,2013-03-16 22:09:00,
2013-03-16 23:14:00,41.2,30.3,29.52,SW,228,12.1,17.3,65,0.00,CLR,,0.04,0.0,WeatherDisplay:10.37,2013-03-16 22:14:00,
2013-03-16 23:19:00,40.7,30.9,29.51,South,184,13.0,19.6,68,0.00,CLR,,0.04,0.0,WeatherDisplay:10.37,2013-03-16 22:19:00,
2013-03-16 23:24:00,40.3,32.0,29.51,South,176,17.3,26.5,72,0.00,-RA,,0.04,0.0,WeatherDisplay:10.37,2013-03-16 22:24:00,
2013-03-16 23:29:00,39.9,32.3,29.51,South,180,12.7,25.3,74,0.00,-RA,,0.04,0.0,WeatherDisplay:10.37,2013-03-16 22:29:00,
2013-03-16 23:34:00,39.6,32.6,29.51,SSE,167,12.6,17.3,76,0.00,-RA,,0.04,0.0,WeatherDisplay:10.37,2013-03-16 22:34:00,
2013-03-16 23:39:00,39.4,32.8,29.50,South,178,7.6,13.8,77,0.00,-RA,,0.04,0.0,WeatherDisplay:10.37,2013-03-16 22:39:00,
2013-03-16 23:44:00,39.4,33.1,29.50,South,179,4.8,10.4,78,0.00,-RA,,0.04,0.0,WeatherDisplay:10.37,2013-03-16 22:44:00,
2013-03-16 23:49:00,39.6,33.6,29.50,SSW,192,15.1,24.2,79,0.00,-RA,,0.04,0.0,WeatherDisplay:10.37,2013-03-16 22:49:00,
2013-03-16 23:54:00,39.9,33.9,29.50,South,190,11.3,18.4,79,0.00,-RA,,0.04,0.0,WeatherDisplay:10.37,2013-03-16 22:54:00,
2013-03-16 23:59:00,40.1,34.4,29.50,South,181,11.3,14.0,80,0.00,-RA,,0.04,0.0,WeatherDisplay:10.37,2013-03-16 22:59:00,